Hourly Data Report for October 23, 2018

MONTREAL INTL A
QUEBEC
Current Station Operator: NAVCAN

45°28'14.000" N
73°44'27.000" W
36.00 m
7025251
71627
YUL

Download Data

Hourly Data (October 2018)
Hourly Data Report for October 23, 2018
TIME
LST
Temp Definition
°C
Dew Point Definition
°C
Rel Hum Definition
%
Precip. Amount Definition
mm

Wind Dir Definition
10's deg

Wind Spd Definition
km/h
Visibility Definition
km
Stn Press Definition
kPa
Hmdx Definition


Wind Chill Definition


Weather Definition


00:00 3.5 0.4 80   5 11 24.1 101.59     LegendNANA
01:00 2.6 -0.2 82   5 16 24.1 101.58     Cloudy
02:00 0.9 -1.3 85   5 13 24.1 101.55     LegendNANA
03:00 1.8 -0.7 84   7 9 24.1 101.52     LegendNANA
04:00 1.1 -1.0 86   4 14 24.1 101.49     Mostly Cloudy
05:00 0.5 -1.3 88   4 11 24.1 101.50     LegendNANA
06:00 1.2 -0.6 88   5 13 24.1 101.48     LegendNANA
07:00 1.8 -0.2 87   4 16 48.3 101.47     Mostly Cloudy
08:00 2.5 0.2 85   4 19 24.1 101.46     LegendNANA
09:00 3.2 0.9 85   2 18 24.1 101.45     LegendNANA
10:00 5.2 1.7 79   4 20 24.1 101.42     Mostly Cloudy
11:00 6.8 2.1 72   5 26 24.1 101.31     LegendNANA
12:00 9.1 2.6 64   5 25 24.1 101.20     LegendNANA
13:00 8.4 2.3 65   4 23 24.1 101.13     Mostly Cloudy
14:00 8.0 1.2 62   4 24 24.1 101.11     LegendNANA
15:00 7.2 0.3 61   1 23 24.1 101.11     LegendNANA
16:00 6.7 0.4 64   3 24 24.1 101.12     Cloudy
17:00 6.4 -0.5 61   3 27 24.1 101.15     LegendNANA
18:00 6.3 -0.6 62   2 19 24.1 101.19     Rain Showers
19:00 5.2 -1.2 64   2 24 24.1 101.17     Mostly Cloudy
20:00 4.7 -1.6 64   2 24 24.1 101.18     LegendNANA
21:00 3.8 -2.2 65   3 21 24.1 101.20     LegendNANA
22:00 4.6 -1.9 62   1 15 24.1 101.23     Cloudy
23:00 4.3 -1.5 66   1 17 24.1 101.24     Rain Showers

Notes on Data Quality.

Legend

  • E = Estimated
  • M = Missing
  • NA = Not Available*
  • [empty] = Indicates an unobserved value
Date modified: